Simultaneous Nadir Overpasses (SNOs) Predictions

Prediction of SNOs between METOP-A and NOAA-19 Satellite Orbit:

Table of predicted SNOs for the next 14.0 days since TLE Epoch: 5/8/2020
Index Date (METOP-A) Time (METOP-A) Lat,Lon (METOP-A) SZA (METOP-A ) Date (NOAA-19) Time (NOAA-19) Lat,Lon (NOAA-19) SZA (NOAA-19 ) Distance(km) Time Diff (sec)
1 05/11/2020 08:21:15 80.48, 68.23 62.71 05/11/2020 08:20:05 80.48, 68.35 62.71 2.17 70
2 05/11/2020 09:11:56 -80.49,-124.33 117.29 05/11/2020 09:11:00 -80.48,-124.48 117.31 2.78 56
3 05/11/2020 10:02:37 80.46, 42.75 62.68 05/11/2020 10:02:06 80.48, 42.72 62.69 2.32 31
4 05/11/2020 10:53:18 -80.47,-149.81 117.32 05/11/2020 10:53:00 -80.47,-149.77 117.33 0.72 18
5 05/11/2020 11:43:58 80.48, 17.60 62.68 05/11/2020 11:44:06 80.47, 17.43 62.67 3.14 8
6 05/11/2020 12:34:40 -80.46,-175.28 117.36 05/11/2020 12:35:01 -80.48,-175.40 117.34 2.80 21
7 05/11/2020 13:25:20 80.47, -7.88 62.65 05/11/2020 13:26:06 80.46, -7.85 62.65 0.67 46
8 05/11/2020 14:16:02 -80.45, 159.24 117.39 05/11/2020 14:17:01 -80.47, 159.32 117.36 2.37 59
9 05/22/2020 09:34:37 80.50, 49.93 60.26 05/22/2020 09:33:38 80.51, 49.77 60.25 3.20 59
10 05/22/2020 10:25:19 -80.49,-142.88 119.77 05/22/2020 10:24:33 -80.50,-142.76 119.76 2.44 46
11 05/22/2020 11:15:59 80.49, 24.46 60.23 05/22/2020 11:15:38 80.50, 24.48 60.23 1.37 21
12 05/22/2020 12:06:40 -80.50,-168.03 119.76 05/22/2020 12:06:33 -80.49,-168.05 119.78 1.48 7
13 05/22/2020 12:57:20 80.50, -0.70 60.24 05/22/2020 12:57:38 80.49, -0.81 60.22 2.48 18
14 05/22/2020 13:48:02 -80.49, 166.49 119.79 05/22/2020 13:48:34 -80.50, 166.32 119.79 3.23 32
15 05/22/2020 14:38:42 80.49, -26.18 60.20 05/22/2020 14:39:38 80.48, -26.09 60.21 2.01 56




NCC Satellite Simultaneous Nadir Overpasses (SNOs) Prediction Service
